Flag for U.S.A. Weather past 2 weeks in Ontario, Oregon, U.S.A.

Now
44 °F

Light rain. Overcast.


Feels Like: 39 °F
Forecast: 41 / 52 °F
Wind: 9 mph from Southeast

Location: Ontario Municipal Airport

Current Time: Dec 21, 2014 at 12:21:24 AM

Latest Report: Dec 20, 2014 at 11:53 PM


Visibility: 8 mi

Pressure: 29.90 "Hg

Humidity: 85%

Dew point: 40 °F

Location of OntarioLocation

Historic Weather in Ontario — Graph

°F

Ontario temperature yesterday

Maximum temperature yesterday: 45 °F (at 1:53 PM)
Minimum temperature yesterday: 34 °F (at 1:53 AM)
Average temperature yesterday: 40 °F

Past Weeks' High & Low Weather Summary

 TemperatureHumidityPressure
High54 °F (Dec 11, 12:53 PM)97% (Dec 6, 5:01 AM)30.43 "Hg (Dec 6, 5:01 AM)
Low24 °F (Dec 15, 7:53 AM)44% (Dec 14, 2:53 PM)29.59 "Hg (Dec 11, 4:53 PM)
Average40 °F83%30.10 "Hg
* Reported Dec 5 10:53 PM — Dec 20 10:53 PM, Ontario, Weather by CustomWeather, © 2014

Note: Actual official high and low records may vary slightly from our data, if they occured in-between our weather recording intervals... More about our weather records

Advertising

Ontario weather history for previous 24 hours

 ConditionsComfort  
Time TempWeatherWind HumidityBarometerVisibility
10:53 PM
Dec 20
44 °FLight rain. Overcast.14 mph89%29.89 "Hg10 mi
9:53 PM44 °FLight rain. Mostly cloudy.12 mph89%29.91 "Hg9 mi
8:53 PM44 °FLight rain. Overcast.8 mph89%29.94 "Hg8 mi
7:53 PM43 °FLight rain. Overcast.8 mph93%29.95 "Hg7 mi
6:53 PM43 °FLight rain. Overcast.6 mph89%29.97 "Hg9 mi
5:53 PM44 °FLight rain. Fog.8 mph93%29.97 "Hg5 mi
4:53 PM44 °FLight rain. Fog.7 mph93%29.98 "Hg5 mi
3:53 PM45 °FLight rain. Overcast.9 mph86%29.97 "Hg8 mi
2:53 PM45 °FLight rain. Overcast.9 mph86%29.98 "Hg9 mi
1:53 PM45 °FLight rain. Overcast.5 mph86%29.99 "Hg9 mi
12:53 PM44 °FLight rain. Mostly cloudy.3 mph89%30.00 "Hg9 mi
11:53 AM43 °FMostly cloudy.No wind86%30.03 "Hg10 mi
10:53 AM40 °FBroken clouds.No wind89%30.06 "Hg9 mi
10:00 AM38 °FFog.No wind97%30.01 "Hg6 mi
8:53 AM37 °FLight rain. Fog.No wind96%30.06 "Hg2 mi
7:53 AM37 °FLight rain. Fog.No wind93%30.06 "Hg3 mi
6:53 AM36 °FLight rain. Fog.No wind97%30.08 "Hg3 mi
5:53 AM36 °FFog.No wind92%30.07 "Hg2 mi
5:01 AM36 °FLight rain. Fog.No wind92%30.05 "Hg1 mi
3:53 AM35 °FFog.No wind96%30.10 "Hg0 mi
2:53 AM35 °FFog.3 mph92%30.11 "Hg1 mi
1:53 AM34 °FFog.No wind97%30.14 "Hg4 mi
12:53 AM35 °FFog.No wind92%30.13 "Hg5 mi
Weather by CustomWeather, © 2014

See weather overviewHow to use our weather pages